Regional Weather Roundup
Issued by NWS Upton, NY

Current Version | Previous Version | Text Only | Print | Product List | Glossary On
Versions: 1 2 3 4 5 6 7 8 9 10 11 12 13 14 15 16 17 18 19 20 21 22 23 24 25 26 27 28 29 30 31 32 33 34 35 36 37 38 39 40 41 42 43 44 45 46 47 48 49 50
000
ASUS41 KOKX 180908
RWROKX

Regional Weather Roundup
National Weather Service New York NY
400 AM EST MON DEC 18 2017

Note: "FAIR" indicates few or no clouds below 12,000 feet with no
significant weather and/or obstructions to visibility.

NYZ071-072-176-178-NJZ106-104-181000-
New York City Metro Area

CITY           SKY/WX    TMP DP  RH WIND       PRES   REMARKS
Central Park   CLOUDY    34  30  85 CALM      30.16F
Bronx Bot Gard   N/A     32  27  80 NE1       30.16F
Bronx Lehman C   N/A     34  27  75 E6          N/A  WCI  29
LaGuardia Arpt LGT RAIN  35  28  75 E8        30.15F WCI  29
Queens College   N/A     32  30  93 NE6         N/A  WCI  26
Kennedy Intl   LGT RAIN  33  29  85 NE8       30.16F WCI  26
Breezy Point     N/A     32 N/A N/A NE8         N/A  WCI  25
Brooklyn Coll    N/A     34  30  86 NE6         N/A  WCI  29
Staten Island    N/A     34  32  93 NE3         N/A
Newark/Liberty FLURRIES  35  31  85 NE5       30.14F WCI  31
Teterboro      DRIZZLE   34  26  72 N3        30.15F
$$

NYZ177-179-078>081-181000-
Long Island New York

CITY           SKY/WX    TMP DP  RH WIND       PRES   REMARKS
Jones Beach      N/A     34 N/A N/A E14         N/A  WCI  24
Wantagh          N/A     34  28  80 NE6         N/A  WCI  29
Matinecock Pt    N/A     34 N/A N/A E8          N/A  WCI  27
Farmingdale    MIX PCPN  33  25  72 E7        30.16F WCI  27
MacArthur/ISP  CLOUDY    33  20  58 E5        30.16F WCI  29
Shirley        CLOUDY    33  20  58 CALM      30.18F
Mt Sinai Harb    N/A    N/A N/A N/A E1          N/A
Westhampton    CLOUDY    32  17  54 NE6       30.19F WCI  26
East Hampton   CLOUDY    31  18  59 CALM      30.18F
Southold         N/A     32  18  55 E2          N/A
Montauk          N/A     36  19  50 CALM      30.20F
$$

NYZ052-065-067-181000-
Hudson Valley

CITY           SKY/WX    TMP DP  RH WIND       PRES   REMARKS
White Plains   FLURRIES  30  22  72 E5        30.13F WCI  25
Larchmont Harb   N/A     34 N/A N/A NE8         N/A  WCI  27
Croton On Huds   N/A     32 N/A N/A NE1         N/A
Somers           N/A     30  19  64 E1          N/A
Brewster         N/A     28  18  64 NW1         N/A
Newburgh       CLOUDY    27  21  80 CALM      30.15F
Montgomery     CLOUDY    27  18  69 NE3       30.14F
Otisville        N/A     27  19  74 E1          N/A
Warwick          N/A     28  21  74 NW1         N/A
Suffern          N/A     30  23  74 CALM        N/A
Poughkeepsie   CLOUDY    27  17  66 CALM      30.16F
Albany         CLOUDY    19  10  68 CALM      30.15F
$$

NJZ001-105-106-008-010-013-015-019>022-104-181000-
New Jersey

CITY           SKY/WX    TMP DP  RH WIND       PRES   REMARKS
Newark/Liberty FLURRIES  35  31  85 NE5       30.14F WCI  31
Teterboro      DRIZZLE   34  26  72 N3        30.15F
Caldwell       CLOUDY    32  25  75 NE7       30.15F WCI  26
Somerville     CLOUDY    33  29  85 CALM      30.13F
Linden         CLOUDY    35  31  85 E7        30.15F WCI  29
Perth Amboy      N/A     34 N/A N/A NE3         N/A
Sussex         CLOUDY    28  21  75 CALM      30.14F
Andover        NOT AVBL
Trenton        CLOUDY    36  32  85 NE5       30.12F WCI  32
Millville      CLOUDY    37  37 100 CALM      30.12S
Atlantic City  CLOUDY    41  38  89 NW5       30.12S
Wrightstown    CLOUDY    38  36  93 CALM      30.09F
Toms River     CLOUDY    38  37  97 CALM      30.13F
Belmar         CLOUDY    43  40  89 E8        30.13F
$$

PAZ047>061-062-071-181000-
Eastern Pennsylvania

CITY           SKY/WX    TMP DP  RH WIND       PRES   REMARKS
Philadelphia   CLOUDY    39  34  82 CALM      30.14F
Allentown      CLOUDY    35  28  75 CALM      30.13F
Scranton       CLOUDY    32  27  81 CALM      30.09F
$$

CTZ002-004>006-009-010-012-RIZ004-006-007-MAZ004-011-015-181000-
Southern New England

 In CT

CITY           SKY/WX    TMP DP  RH WIND       PRES   REMARKS
Bradley Intl   CLOUDY    26  14  60 CALM      30.19F
Hartford       CLOUDY    28  13  53 NE3       30.20F
Danbury        FLURRIES  29  17  61 NE3       30.16F
Wtrbury/Oxford FLURRIES  27  16  63 NE3       30.15F
Norwalk Harbor   N/A    N/A N/A N/A NE8         N/A
Bridgeport     NOT AVBL
Meriden        CLOUDY    28  11  48 NE3       30.18F
New Haven      CLOUDY    31  16  54 CALM      30.18F
Chester        CLOUDY    28  10  47 CALM      30.17F
Groton         CLOUDY    29  12  49 NE3       30.19F
Willimantic    CLOUDY    27  15  61 CALM      30.20F

 In RI

CITY           SKY/WX    TMP DP  RH WIND       PRES   REMARKS
Providence     CLOUDY    27  15  61 NE5       30.22F WCI  22
Block Island   CLOUDY    34  20  56 E3        30.19F
Westerly       CLOUDY    29  14  53 N5        30.20F WCI  24

In MA

CITY           SKY/WX    TMP DP  RH WIND       PRES   REMARKS
Boston         CLOUDY    23   6  48 N5        30.23F WCI  17
Worcester      CLOUDY    20   8  60 CALM      30.14F
Westfield      CLOUDY    23  12  62 CALM      30.18F
Provincetown   CLOUDY    25  16  68 CALM      30.22F
Nantucket      CLOUDY    28  20  71 CALM      30.21F
$$

ANZ330-335-338-340-345-350-353-355-181000-
Coastal Marine Observations


STATION/POSITION TIME  SKY/WX   TEMP    WIND        PRES    VSBY  WAVE
                                AIR SEA DIR/SP/G                  HT/PER
                 (UTC)          (F)     (DEG/KT/KT) (MB)    (MI)  (FT/S)
NY Harb Entrance 0750            44 51   70/ 12/ 14 1021.2          2/ 3
20 S Fire Island 0750            44 50  120/ 12/ 14 1021.5          2/ 8
15 E Barnegat Li 0830               49                N/A           2/ 4
Hudson Canyon    0750            50 54  130/ 12/ 14 1020.6          2/ 8
Kings Point      0830            33 42   80/  4/  4 1022.5
Execution Rocks  0830            36     100/  4/  6   N/A
Western LI Sound NOT AVBL
Central LI Sound 0815            36     110/  8/ 10   N/A           1
Robbins Reef     0830            35      70/ 10/ 12 1021.6
$$


>>>>>>>>>>>>>>>>>>>>>>>>>>>> KEY <<<<<<<<<<<<<<<<<<<<<<<<<<<
>                                                          <
>     SKY/WX - Sky Condition/Present Weather               <
>     TMP    - Temperature in Fahrenheit                   <
>     DP     - Dew Point in Fahrenheit                     <
>     RH     - Relative Humidity in Percent                <
>     WIND   - Direction (from) and Speed in MPH           <
>     PRES   - Mean Sea Level Pressure (inches of Hg)      <
>     WCI    - Wind Chill Index                            <
>     VSB    - Visibility in Miles                         <
>     HX     - Heat Index                                  <
>     TC     - Temperature in Celsius                      <
>     VRB    - Varibale Wind Direction                     <
>                                                          <
>>>>>>>>>>>>>>>>>>>>>>>>>>>> KEY <<<<<<<<<<<<<<<<<<<<<<<<<<<



USA.gov is the U.S. government's official web portal to all federal, state and local government web resources and services.